• Processing (Info)

  • MPEC 2010-W27 : COMET P/2010 T2 (PANSTARRS)

    The following Minor Planet Electronic Circular may be linked-to from your own Web pages, but must not otherwise be redistributed electronically.

    A form allowing access to any MPEC is at the bottom of this page.


    Read MPEC 2010-W26 Read MPEC 2010-W28


    M.P.E.C. 2010-W27                                Issued 2010 Nov. 25, 02:00 UT
    
         The Minor Planet Electronic Circulars contain information on unusual
             minor planets and routine data on comets.  They are published
       on behalf of Commission 20 of the International Astronomical Union by the
              Minor Planet Center, Smithsonian Astrophysical Observatory,
                              Cambridge, MA 02138, U.S.A.
    
                 Prepared using the Tamkin Foundation Computer Network
    
                                  MPC@CFA.HARVARD.EDU
           URL https://www.minorplanetcenter.org/iau/mpc.html  ISSN 1523-6714
    
                              COMET P/2010 T2 (PANSTARRS)
    
    Observations:
        PK10T020  C2010 10 29.13489 00 54 58.35 -01 43 51.1                 EW027H06
        PK10T020  C2010 10 29.14442 00 54 58.02 -01 43 51.8          20.7 T EW027H06
        PK10T020  C2010 10 31.90819 00 53 37.94 -01 46 13.7          19.7 NuEW027585
        PK10T020  C2010 10 31.91097 00 53 37.88 -01 46 14.7          19.6 NuEW027585
        PK10T020  C2010 11 01.23019 00 53 29.58 -01 46 32.5                 EW027H06
        PK10T020  C2010 11 01.23615 00 53 29.40 -01 46 32.9                 EW027H06
        PK10T020  C2010 11 01.24211 00 53 29.20 -01 46 33.9          20.7 T EW027H06
        PK10T020  C2010 11 04.85951 00 51 52.83 -01 48 31.3          19.8 NwEW027J01
        PK10T020  C2010 11 04.86179 00 51 52.75 -01 48 32.4          19.5 NwEW027J01
        PK10T020  C2010 11 04.86523 00 51 52.68 -01 48 32.5          19.6 NwEW027J01
        PK10T020 KC2010 11 12.90878 00 48 51.59 -01 48 13.2          20.1 NvEW027204
        PK10T020 HC2010 11 12.92848 00 48 51.16 -01 48 10.9                vEW027204
    
    Observer details:
    204 Schiaparelli Observatory.  Observer L. Buzzi.  0.60-m f/4.64 reflector
        + CCD.
    585 Kiev comet station.  Observer A. Baransky.  0.7-m f/4 reflector + CCD.
    H06 RAS Observatory, Mayhill.  Observer H. Sato.  0.50-m f/6.8 reflector + CCD.
    J01 Observatorio Cielo Profundo, Oviedo.  Observer J. Gonzalez.  0.23-m f/10
        Schmidt-Cassegrain + CCD.
    
    Orbital elements:
        P/2010 T2 (PANSTARRS)
    T 2011 July 11.8493 TT                                  MPC
    q   3.739999             (2000.0)            P               Q
    n   0.0748755      Peri.  356.4168      +0.5566562      -0.8220085
    a   5.574974       Node    59.7221      +0.7656088      +0.4514799
    e   0.329145       Incl.    7.9974      +0.3224548      +0.3470849
    P  13.2
    From 19 observations 2010 Oct. 6-Nov. 4.
    
    Ephemeris:
        P/2010 T2 (PANSTARRS)
    Date    TT    R. A. (2000) Decl.     Delta      r     Elong.  Phase   m1    m2
    2010 11 20    00 46.94   -01 42.2    3.186    3.921   132.4    10.7  20.0
    2010 11 30    00 45.53   -01 24.7    3.291    3.907   122.2    12.3  20.0
    2010 12 10    00 45.72   -00 56.9    3.410    3.893   112.4    13.5  20.1
    2010 12 20    00 47.53   -00 19.5    3.539    3.879   102.9    14.3  20.1
    2010 12 30    00 50.87   +00 26.4    3.674    3.866    93.8    14.7  20.2
    2011 01 09    00 55.62   +01 19.6    3.811    3.854    85.1    14.7  20.3
    2011 01 19    01 01.66   +02 19.1    3.947    3.842    76.7    14.4  20.3
    2011 01 29    01 08.84   +03 23.6    4.078    3.831    68.6    13.9  20.4
    2011 02 08    01 17.02   +04 32.1    4.203    3.821    60.8    13.0  20.4
    2011 02 18    01 26.07   +05 43.6    4.318    3.811    53.3    12.0  20.5
    2011 02 28    01 35.88   +06 57.1    4.423    3.801    45.9    10.8  20.5
    2011 03 10    01 46.35   +08 11.8    4.515    3.793    38.8     9.4  20.6
    2011 03 20    01 57.38   +09 26.8    4.594    3.785    31.8     8.0  20.6
    
    Gareth V. Williams           (C) Copyright 2010 MPC           M.P.E.C. 2010-W27
    

    Read MPEC 2010-W26 Read MPEC 2010-W28


    MPEC number:

    Enter an MPEC number in one of the following forms:

    • 1997-B01 (the full form)
    • J97B01 (the packed version of the full form)
    • B01 (the abbreviated form)